| time (UTC) | temp C | wind direction | speed KPH | gust KPH | rain 1hr cm | rain 24hr cm | rain mn cm | humidity % | barometer mb |
| 20260510211358 | 12 | 226 | 0.0 | 3.2 | 0.00 | 0.79 | 0.71 | 80 | 1013.9 |
| 20260510210402 | 12 | 226 | 3.2 | 6.4 | 0.00 | 0.79 | 0.71 | 78 | 1013.8 |
| 20260510205903 | 12 | 226 | 1.6 | 12.9 | 0.00 | 0.79 | 0.71 | 78 | 1013.6 |
| 20260510205345 | 12 | 201 | 4.8 | 12.9 | 0.00 | 0.79 | 0.71 | 78 | 1013.6 |
| 20260510204845 | 12 | 201 | 6.4 | 14.5 | 0.00 | 1.07 | 0.71 | 78 | 1013.5 |
| 20260510204345 | 12 | 188 | 8.0 | 14.5 | 0.00 | 1.07 | 0.71 | 78 | 1013.6 |
| 20260510203848 | 12 | 221 | 8.0 | 12.9 | 0.00 | 1.07 | 0.71 | 78 | 1013.6 |
| 20260510203345 | 12 | 196 | 6.4 | 12.9 | 0.00 | 1.07 | 0.71 | 77 | 1013.5 |
| 20260510202850 | 12 | 192 | 6.4 | 12.9 | 0.00 | 1.07 | 0.71 | 77 | 1013.4 |
| 20260510202353 | 12 | 213 | 6.4 | 14.5 | 0.00 | 1.07 | 0.71 | 77 | 1013.4 |
| 20260510201854 | 12 | 216 | 8.0 | 14.5 | 0.00 | 1.07 | 0.71 | 77 | 1013.4 |
| 20260510201354 | 12 | 186 | 6.4 | 11.3 | 0.00 | 1.07 | 0.71 | 77 | 1013.3 |
| 20260510200854 | 12 | 189 | 8.0 | 11.3 | 0.00 | 1.07 | 0.71 | 76 | 1013.3 |
| 20260510200341 | 12 | 205 | 3.2 | 11.3 | 0.00 | 1.07 | 0.71 | 76 | 1013.1 |
| 20260510194852 | 12 | 196 | 8.0 | 12.9 | 0.00 | 1.12 | 0.71 | 74 | 1012.8 |
| 20260510194354 | 13 | 188 | 3.2 | 11.3 | 0.00 | 1.12 | 0.71 | 73 | 1012.8 |
| 20260510193855 | 13 | 210 | 4.8 | 14.5 | 0.00 | 1.12 | 0.71 | 72 | 1012.7 |
| 20260510193355 | 13 | 201 | 3.2 | 16.1 | 0.00 | 1.12 | 0.71 | 71 | 1012.6 |
| 20260510192858 | 13 | 222 | 4.8 | 16.1 | 0.00 | 1.12 | 0.71 | 71 | 1012.6 |
| 20260510192401 | 13 | 193 | 6.4 | 16.1 | 0.00 | 1.12 | 0.71 | 71 | 1012.6 |
| 20260510191901 | 13 | 200 | 8.0 | 14.5 | 0.00 | 1.12 | 0.71 | 70 | 1012.6 |
| 20260510190848 | 13 | 207 | 6.4 | 14.5 | 0.00 | 1.12 | 0.71 | 70 | 1012.5 |
| 20260510190349 | 13 | 213 | 8.0 | 16.1 | 0.00 | 1.12 | 0.71 | 69 | 1012.3 |
| 20260510185352 | 14 | 210 | 6.4 | 19.3 | 0.00 | 1.12 | 0.71 | 67 | 1012.1 |
| 20260510184853 | 14 | 201 | 9.7 | 19.3 | 0.00 | 1.19 | 0.71 | 66 | 1012.0 |
| 20260510183859 | 14 | 206 | 6.4 | 22.5 | 0.00 | 1.19 | 0.71 | 66 | 1012.1 |
| 20260510183358 | 14 | 239 | 6.4 | 22.5 | 0.00 | 1.19 | 0.71 | 66 | 1012.1 |
| 20260510182859 | 15 | 189 | 4.8 | 14.5 | 0.00 | 1.19 | 0.71 | 66 | 1012.0 |
| 20260510182342 | 15 | 221 | 8.0 | 14.5 | 0.00 | 1.19 | 0.71 | 66 | 1012.0 |
| 20260510181844 | 15 | 218 | 4.8 | 14.5 | 0.00 | 1.19 | 0.71 | 66 | 1011.9 |
| 20260510181346 | 15 | 197 | 4.8 | 17.7 | 0.00 | 1.19 | 0.71 | 65 | 1011.8 |
| 20260510175853 | 15 | 220 | 11.3 | 29.0 | 0.00 | 1.19 | 0.71 | 62 | 1011.9 |
| 20260510175355 | 15 | 180 | 14.5 | 27.4 | 0.00 | 1.19 | 0.71 | 63 | 1011.8 |
| 20260510174857 | 15 | 194 | 14.5 | 27.4 | 0.00 | 1.19 | 0.71 | 63 | 1011.8 |
| 20260510173402 | 15 | 196 | 8.0 | 20.9 | 0.00 | 1.19 | 0.71 | 63 | 1011.9 |
| 20260510172843 | 15 | 190 | 9.7 | 24.1 | 0.00 | 1.19 | 0.71 | 62 | 1011.8 |
| 20260510172344 | 15 | 178 | 11.3 | 25.7 | 0.00 | 1.19 | 0.71 | 62 | 1011.7 |
| 20260510171848 | 15 | 216 | 9.7 | 30.6 | 0.00 | 1.19 | 0.71 | 61 | 1011.8 |
| 20260510171349 | 15 | 196 | 14.5 | 27.4 | 0.00 | 1.19 | 0.71 | 57 | 1011.7 |
| 20260510170359 | 15 | 223 | 11.3 | 29.0 | 0.00 | 1.19 | 0.71 | 59 | 1011.8 |
| 20260510165902 | 15 | 200 | 17.7 | 27.4 | 0.00 | 1.19 | 0.71 | 57 | 1011.6 |
| 20260510165344 | 15 | 217 | 9.7 | 24.1 | 0.00 | 1.19 | 0.71 | 59 | 1011.8 |
| 20260510164847 | 16 | 218 | 14.5 | 25.7 | 0.00 | 1.45 | 0.71 | 58 | 1011.8 |
| 20260510164349 | 16 | 195 | 14.5 | 22.5 | 0.00 | 1.45 | 0.71 | 58 | 1011.7 |
| 20260510163854 | 16 | 207 | 9.7 | 22.5 | 0.00 | 1.45 | 0.71 | 61 | 1011.6 |
| 20260510163357 | 16 | 203 | 11.3 | 22.5 | 0.00 | 1.45 | 0.71 | 59 | 1011.8 |
| 20260510162900 | 15 | 184 | 11.3 | 22.5 | 0.00 | 1.45 | 0.71 | 60 | 1011.5 |
| 20260510161846 | 15 | 229 | 14.5 | 25.7 | 0.00 | 1.45 | 0.71 | 61 | 1011.7 |
| 20260510161350 | 15 | 215 | 9.7 | 27.4 | 0.00 | 1.45 | 0.71 | 62 | 1011.9 |
| 20260510155901 | 15 | 219 | 11.3 | 29.0 | 0.00 | 1.45 | 0.71 | 59 | 1011.8 |
| 20260510154849 | 15 | 197 | 14.5 | 32.2 | 0.00 | 1.45 | 0.71 | 60 | 1011.7 |
| 20260510154351 | 15 | 233 | 14.5 | 32.2 | 0.00 | 1.45 | 0.71 | 60 | 1011.9 |
| 20260510153855 | 15 | 188 | 14.5 | 25.7 | 0.00 | 1.45 | 0.71 | 59 | 1011.8 |
| 20260510152902 | 15 | 222 | 11.3 | 27.4 | 0.00 | 1.45 | 0.71 | 57 | 1011.6 |
| 20260510152345 | 15 | 196 | 11.3 | 24.1 | 0.00 | 1.45 | 0.71 | 58 | 1011.5 |
| 20260510151847 | 15 | 155 | 8.0 | 24.1 | 0.00 | 1.45 | 0.71 | 59 | 1011.6 |
| 20260510150358 | 15 | 194 | 9.7 | 29.0 | 0.00 | 1.45 | 0.71 | 61 | 1012.1 |
| 20260510145402 | 15 | 209 | 14.5 | 33.8 | 0.00 | 1.45 | 0.71 | 58 | 1012.0 |
| 20260510144902 | 15 | 220 | 19.3 | 37.0 | 0.00 | 1.47 | 0.71 | 58 | 1012.0 |
| 20260510144343 | 15 | 229 | 16.1 | 37.0 | 0.00 | 1.47 | 0.71 | 58 | 1012.0 |
| 20260510143345 | 15 | 219 | 19.3 | 37.0 | 0.00 | 1.47 | 0.71 | 62 | 1012.0 |
| 20260510142846 | 14 | 169 | 19.3 | 37.0 | 0.00 | 1.47 | 0.71 | 65 | 1012.2 |
| 20260510142348 | 13 | 209 | 14.5 | 30.6 | 0.00 | 1.47 | 0.71 | 67 | 1012.3 |
| 20260510141355 | 13 | 209 | 11.3 | 30.6 | 0.00 | 1.47 | 0.71 | 69 | 1012.4 |
| 20260510140855 | 13 | 205 | 11.3 | 35.4 | 0.00 | 1.47 | 0.71 | 69 | 1012.4 |
| 20260510135901 | 13 | 225 | 16.1 | 41.8 | 0.00 | 1.47 | 0.71 | 71 | 1012.7 |
| 20260510135407 | 13 | 209 | 17.7 | 37.0 | 0.00 | 1.47 | 0.71 | 73 | 1012.6 |
| 20260510134842 | 13 | 200 | 9.7 | 35.4 | 0.00 | 1.47 | 0.71 | 75 | 1012.4 |
| 20260510134346 | 13 | 187 | 11.3 | 35.4 | 0.00 | 1.47 | 0.71 | 75 | 1012.5 |
| 20260510133905 | 12 | 215 | 14.5 | 27.4 | 0.00 | 1.47 | 0.71 | 76 | 1012.4 |
| 20260510133410 | 12 | 213 | 11.3 | 22.5 | 0.00 | 1.47 | 0.71 | 77 | 1012.4 |
| 20260510132901 | 12 | 202 | 12.9 | 22.5 | 0.00 | 1.47 | 0.71 | 78 | 1012.4 |
| 20260510132343 | 12 | 238 | 6.4 | 20.9 | 0.00 | 1.47 | 0.71 | 80 | 1012.3 |
| 20260510131845 | 12 | 227 | 8.0 | 20.9 | 0.00 | 1.47 | 0.71 | 80 | 1012.4 |
| 20260510131350 | 12 | 190 | 9.7 | 16.1 | 0.00 | 1.47 | 0.71 | 81 | 1012.3 |
| 20260510130846 | 12 | 225 | 11.3 | 17.7 | 0.00 | 1.47 | 0.71 | 81 | 1012.2 |
| 20260510124403 | 12 | 215 | 9.7 | 22.5 | 0.00 | 1.50 | 0.71 | 81 | 1012.4 |
| 20260510123901 | 12 | 144 | 11.3 | 22.5 | 0.03 | 1.50 | 0.71 | 80 | 1012.5 |
| 20260510123358 | 12 | 190 | 8.0 | 25.7 | 0.03 | 1.50 | 0.71 | 79 | 1012.3 |
| 20260510122901 | 12 | 232 | 11.3 | 25.7 | 0.03 | 1.50 | 0.71 | 79 | 1012.5 |
| 20260510122343 | 13 | 229 | 12.9 | 25.7 | 0.03 | 1.50 | 0.71 | 77 | 1012.5 |
| 20260510121846 | 13 | 207 | 6.4 | 19.3 | 0.03 | 1.50 | 0.71 | 77 | 1012.6 |
| 20260510121351 | 13 | 211 | 9.7 | 22.5 | 0.03 | 1.50 | 0.71 | 78 | 1012.6 |
| 20260510120854 | 13 | 169 | 11.3 | 22.5 | 0.03 | 1.50 | 0.71 | 78 | 1012.3 |
| 20260510120400 | 13 | 208 | 11.3 | 20.9 | 0.03 | 1.50 | 0.71 | 79 | 1012.2 |
| 20260510115901 | 12 | 205 | 6.4 | 22.5 | 0.03 | 1.50 | 0.71 | 80 | 1012.2 |
| 20260510115401 | 12 | 161 | 11.3 | 22.5 | 0.03 | 1.50 | 0.71 | 80 | 1012.5 |
| 20260510114844 | 12 | 167 | 6.4 | 17.7 | 0.03 | 1.68 | 0.71 | 82 | 1012.6 |
| 20260510114346 | 12 | 192 | 6.4 | 20.9 | 0.03 | 1.68 | 0.71 | 82 | 1012.5 |
| 20260510113353 | 12 | 156 | 6.4 | 19.3 | 0.00 | 1.65 | 0.71 | 82 | 1012.5 |
| 20260510112852 | 12 | 221 | 6.4 | 22.5 | 0.00 | 1.65 | 0.71 | 82 | 1012.7 |
| 20260510112356 | 12 | 215 | 12.9 | 22.5 | 0.00 | 1.65 | 0.71 | 82 | 1012.8 |
| 20260510111856 | 12 | 198 | 11.3 | 30.6 | 0.00 | 1.65 | 0.71 | 83 | 1012.7 |
| 20260510111357 | 11 | 212 | 14.5 | 30.6 | 0.00 | 1.65 | 0.71 | 82 | 1012.7 |
| 20260510110347 | 11 | 213 | 14.5 | 25.7 | 0.08 | 1.65 | 0.71 | 83 | 1012.8 |
| 20260510105847 | 11 | 225 | 11.3 | 25.7 | 0.28 | 1.65 | 0.71 | 83 | 1012.7 |
| 20260510105347 | 11 | 188 | 12.9 | 25.7 | 0.38 | 1.65 | 0.71 | 82 | 1012.7 |
| 20260510104849 | 11 | 190 | 14.5 | 29.0 | 0.56 | 1.78 | 0.71 | 82 | 1012.6 |
| 20260510103853 | 11 | 219 | 17.7 | 25.7 | 0.61 | 1.78 | 0.71 | 83 | 1012.7 |
| 20260510103355 | 11 | 233 | 6.4 | 17.7 | 0.61 | 1.78 | 0.71 | 83 | 1012.7 |
| 20260510102857 | 11 | 221 | 9.7 | 19.3 | 0.61 | 1.78 | 0.71 | 83 | 1012.7 |
| 20260510101901 | 10 | 258 | 11.3 | 20.9 | 0.61 | 1.78 | 0.71 | 83 | 1012.8 |
| 20260510100845 | 10 | 202 | 4.8 | 22.5 | 0.61 | 1.78 | 0.71 | 83 | 1012.8 |
| 20260510100352 | 10 | 230 | 11.3 | 22.5 | 0.51 | 1.70 | 0.61 | 83 | 1012.9 |
| 20260510095400 | 11 | 251 | 11.3 | 29.0 | 0.23 | 1.40 | 0.33 | 82 | 1012.3 |
| 20260510094900 | 12 | 265 | 16.1 | 24.1 | 0.08 | 1.27 | 0.18 | 83 | 1012.2 |
| 20260510094403 | 12 | 161 | 11.3 | 24.1 | 0.03 | 1.19 | 0.13 | 82 | 1011.6 |
| 20260510093845 | 12 | 131 | 14.5 | 24.1 | 0.00 | 1.17 | 0.10 | 82 | 1011.6 |
| 20260510093349 | 13 | 144 | 14.5 | 22.5 | 0.00 | 1.17 | 0.10 | 82 | 1011.7 |
| 20260510092356 | 13 | 147 | 11.3 | 27.4 | 0.00 | 1.17 | 0.10 | 82 | 1011.8 |
| 20260510091855 | 13 | 157 | 16.1 | 27.4 | 0.03 | 1.17 | 0.10 | 82 | 1011.7 |
| 20260510091356 | 13 | 157 | 12.9 | 25.7 | 0.03 | 1.17 | 0.10 | 82 | 1011.9 |
| 20260510090859 | 12 | 111 | 12.9 | 24.1 | 0.03 | 1.17 | 0.10 | 82 | 1012.0 |
| 20260510090359 | 12 | 123 | 11.3 | 24.1 | 0.03 | 1.17 | 0.10 | 83 | 1012.0 |
| 20260510085900 | 12 | 146 | 9.7 | 27.4 | 0.03 | 1.17 | 0.10 | 83 | 1012.0 |
| 20260510085402 | 12 | 157 | 16.1 | 27.4 | 0.03 | 1.17 | 0.10 | 83 | 1012.2 |
| 20260510084902 | 12 | 129 | 9.7 | 22.5 | 0.03 | 1.19 | 0.10 | 83 | 1012.2 |
| 20260510084402 | 12 | 157 | 12.9 | 22.5 | 0.05 | 1.19 | 0.10 | 83 | 1012.2 |
| 20260510083844 | 12 | 115 | 16.1 | 22.5 | 0.05 | 1.19 | 0.10 | 83 | 1012.4 |
| 20260510083345 | 12 | 188 | 3.2 | 22.5 | 0.08 | 1.19 | 0.10 | 83 | 1012.5 |
| 20260510082847 | 12 | 163 | 12.9 | 22.5 | 0.08 | 1.19 | 0.10 | 83 | 1012.5 |
| 20260510082351 | 11 | 175 | 11.3 | 17.7 | 0.08 | 1.19 | 0.10 | 83 | 1012.6 |
| 20260510081856 | 11 | 182 | 8.0 | 24.1 | 0.05 | 1.17 | 0.08 | 83 | 1012.6 |
| 20260510081359 | 11 | 159 | 12.9 | 24.1 | 0.05 | 1.17 | 0.08 | 84 | 1012.7 |
| 20260510080901 | 11 | 188 | 9.7 | 17.7 | 0.05 | 1.17 | 0.08 | 84 | 1012.8 |
| 20260510075849 | 11 | 196 | 0.0 | 6.4 | 0.05 | 1.17 | 0.08 | 84 | 1012.6 |
| 20260510075346 | 11 | 196 | 0.0 | 6.4 | 0.05 | 1.17 | 0.08 | 84 | 1012.5 |
| 20260510074849 | 11 | 197 | 1.6 | 4.8 | 0.05 | 1.17 | 0.08 | 84 | 1012.7 |
| 20260510074350 | 11 | 197 | 0.0 | 4.8 | 0.03 | 1.14 | 0.05 | 84 | 1012.9 |
| 20260510073356 | 11 | 197 | 4.8 | 8.0 | 0.00 | 1.12 | 0.03 | 84 | 1013.0 |
| 20260510072856 | 11 | 196 | 4.8 | 8.0 | 0.00 | 1.12 | 0.03 | 84 | 1012.9 |
| 20260510072358 | 11 | 194 | 3.2 | 9.7 | 0.00 | 1.12 | 0.03 | 84 | 1012.9 |
| 20260510071859 | 10 | 193 | 3.2 | 9.7 | 0.00 | 1.12 | 0.03 | 84 | 1012.8 |
| 20260510071358 | 10 | 197 | 1.6 | 8.0 | 0.00 | 1.12 | 0.03 | 84 | 1012.7 |
| 20260510070901 | 10 | 197 | 1.6 | 8.0 | 0.00 | 1.12 | 0.03 | 84 | 1012.8 |
| 20260510065859 | 10 | 198 | 3.2 | 8.0 | 0.00 | 1.12 | 0.03 | 84 | 1012.7 |
| 20260510064350 | 10 | 198 | 1.6 | 3.2 | 0.00 | 1.12 | 0.03 | 84 | 1012.7 |
| 20260510063849 | 10 | 198 | 0.0 | 0.0 | 0.00 | 1.12 | 0.03 | 84 | 1012.6 |
| 20260510063349 | 10 | 198 | 0.0 | 0.0 | 0.00 | 1.12 | 0.03 | 84 | 1012.6 |
| 20260510062354 | 10 | 198 | 0.0 | 1.6 | 0.00 | 1.12 | 0.03 | 84 | 1012.5 |
| 20260510061853 | 10 | 198 | 0.0 | 1.6 | 0.00 | 1.12 | 0.03 | 84 | 1012.6 |
| 20260510061354 | 10 | 198 | 0.0 | 0.0 | 0.00 | 1.12 | 0.03 | 84 | 1012.6 |
| 20260510060359 | 10 | 198 | 0.0 | 1.6 | 0.00 | 1.12 | 0.03 | 84 | 1012.5 |
| 20260510055902 | 10 | 198 | 0.0 | 3.2 | 0.00 | 1.12 | 0.03 | 84 | 1012.5 |
| 20260510055344 | 10 | 198 | 1.6 | 3.2 | 0.00 | 1.12 | 0.03 | 84 | 1012.5 |
| 20260510054848 | 10 | 198 | 0.0 | 3.2 | 0.03 | 1.12 | 0.03 | 84 | 1012.5 |
| 20260510054350 | 10 | 198 | 0.0 | 3.2 | 0.03 | 1.12 | 0.03 | 84 | 1012.4 |
| 20260510053359 | 10 | 198 | 0.0 | 0.0 | 0.03 | 1.12 | 0.03 | 84 | 1012.4 |
| 20260510052900 | 10 | 198 | 0.0 | 0.0 | 0.03 | 1.12 | 0.03 | 84 | 1012.5 |
| 20260510052401 | 10 | 198 | 0.0 | 0.0 | 0.03 | 1.12 | 0.03 | 84 | 1012.5 |
| 20260510051902 | 10 | 198 | 0.0 | 0.0 | 0.03 | 1.12 | 0.03 | 84 | 1012.6 |
| 20260510051343 | 10 | 198 | 0.0 | 0.0 | 0.03 | 1.12 | 0.03 | 84 | 1012.5 |
| 20260510050844 | 10 | 198 | 0.0 | 3.2 | 0.03 | 1.12 | 0.03 | 84 | 1012.5 |
| 20260510050349 | 10 | 198 | 1.6 | 3.2 | 0.03 | 1.12 | 0.03 | 84 | 1012.5 |
| 20260510045849 | 10 | 198 | 0.0 | 0.0 | 0.03 | 1.12 | 0.03 | 84 | 1012.5 |
| 20260510045352 | 10 | 198 | 0.0 | 0.0 | 0.03 | 1.12 | 0.03 | 84 | 1012.4 |
| 20260510044851 | 10 | 198 | 0.0 | 0.0 | 0.00 | 1.09 | 0.00 | 84 | 1012.4 |
| 20260510044355 | 10 | 198 | 0.0 | 0.0 | 0.00 | 1.09 | 0.00 | 84 | 1012.4 |
| 20260510043855 | 10 | 198 | 0.0 | 0.0 | 0.00 | 1.09 | 0.00 | 84 | 1012.4 |
| 20260510043356 | 10 | 198 | 0.0 | 0.0 | 0.00 | 1.09 | 0.00 | 84 | 1012.4 |
| 20260510042858 | 10 | 198 | 0.0 | 0.0 | 0.00 | 1.09 | 0.00 | 84 | 1012.4 |
| 20260510042402 | 10 | 198 | 0.0 | 0.0 | 0.00 | 1.09 | 0.00 | 84 | 1012.5 |
| 20260510041902 | 10 | 198 | 0.0 | 3.2 | 0.00 | 1.09 | 0.00 | 84 | 1012.4 |
| 20260510041343 | 10 | 198 | 0.0 | 3.2 | 0.00 | 1.09 | 0.00 | 84 | 1012.5 |
| 20260510040350 | 10 | 198 | 0.0 | 3.2 | 0.00 | 1.09 | 0.00 | 84 | 1012.4 |
| 20260510035850 | 10 | 198 | 0.0 | 4.8 | 0.00 | 1.09 | 0.00 | 84 | 1012.4 |
| 20260510035349 | 10 | 198 | 1.6 | 4.8 | 0.00 | 1.09 | 0.00 | 84 | 1012.5 |
| 20260510034850 | 10 | 198 | 0.0 | 4.8 | 0.00 | 1.09 | 0.00 | 84 | 1012.5 |
| 20260510034353 | 10 | 198 | 0.0 | 3.2 | 0.00 | 1.09 | 0.00 | 84 | 1012.5 |
| 20260510033855 | 10 | 198 | 0.0 | 3.2 | 0.00 | 1.09 | 0.00 | 84 | 1012.5 |
| 20260510033358 | 10 | 198 | 0.0 | 6.4 | 0.00 | 1.09 | 0.00 | 84 | 1012.5 |
| 20260510032858 | 10 | 198 | 4.8 | 6.4 | 0.00 | 1.09 | 0.00 | 84 | 1012.6 |
| 20260510031845 | 10 | 198 | 1.6 | 8.0 | 0.00 | 1.09 | 0.00 | 84 | 1012.8 |
| 20260510031348 | 10 | 196 | 1.6 | 4.8 | 0.00 | 1.09 | 0.00 | 84 | 1012.7 |
| 20260510030851 | 10 | 196 | 0.0 | 3.2 | 0.00 | 1.09 | 0.00 | 84 | 1012.6 |
| 20260510030353 | 10 | 196 | 0.0 | 3.2 | 0.00 | 1.09 | 0.00 | 84 | 1012.5 |
| 20260510025856 | 10 | 196 | 0.0 | 6.4 | 0.00 | 1.09 | 0.00 | 84 | 1012.6 |
| 20260510024901 | 10 | 196 | 1.6 | 8.0 | 0.00 | 1.09 | 0.00 | 84 | 1012.6 |
| 20260510024343 | 10 | 196 | 4.8 | 8.0 | 0.00 | 1.09 | 0.00 | 84 | 1012.5 |
| 20260510023845 | 10 | 202 | 3.2 | 6.4 | 0.00 | 1.09 | 0.00 | 84 | 1012.7 |
| 20260510023348 | 10 | 202 | 3.2 | 8.0 | 0.00 | 1.09 | 0.00 | 84 | 1012.7 |
| 20260510022847 | 10 | 202 | 3.2 | 8.0 | 0.00 | 1.09 | 0.00 | 84 | 1012.8 |
| 20260510022349 | 10 | 213 | 4.8 | 8.0 | 0.00 | 1.09 | 0.00 | 84 | 1012.9 |
| 20260510021849 | 10 | 213 | 4.8 | 6.4 | 0.00 | 1.09 | 0.00 | 84 | 1012.9 |
| 20260510021353 | 10 | 213 | 3.2 | 6.4 | 0.00 | 1.09 | 0.00 | 84 | 1012.8 |
| 20260510020858 | 10 | 213 | 3.2 | 6.4 | 0.00 | 1.09 | 0.00 | 84 | 1012.9 |
| 20260510020356 | 10 | 213 | 3.2 | 6.4 | 0.00 | 1.09 | 0.00 | 84 | 1012.8 |
| 20260510015402 | 10 | 213 | 1.6 | 6.4 | 0.00 | 1.09 | 0.00 | 84 | 1012.8 |
| 20260510014347 | 10 | 213 | 4.8 | 8.0 | 0.00 | 1.09 | 0.00 | 84 | 1012.9 |
| 20260510013850 | 10 | 213 | 4.8 | 8.0 | 0.00 | 1.09 | 0.00 | 84 | 1012.8 |
| 20260510013352 | 11 | 213 | 4.8 | 8.0 | 0.00 | 1.09 | 0.00 | 84 | 1012.7 |
| 20260510012853 | 11 | 215 | 1.6 | 3.2 | 0.00 | 1.09 | 0.00 | 84 | 1012.8 |
| 20260510011855 | 11 | 214 | 0.0 | 4.8 | 0.00 | 1.09 | 0.00 | 84 | 1012.9 |
| 20260510011358 | 11 | 214 | 0.0 | 3.2 | 0.00 | 1.09 | 0.00 | 84 | 1012.9 |
| 20260510010858 | 11 | 214 | 1.6 | 6.4 | 0.00 | 1.09 | 0.00 | 84 | 1012.9 |
| 20260510005902 | 11 | 214 | 0.0 | 6.4 | 0.00 | 1.09 | 0.00 | 84 | 1012.9 |
| 20260510005402 | 11 | 215 | 0.0 | 8.0 | 0.00 | 1.09 | 0.00 | 84 | 1012.9 |
| 20260510004844 | 11 | 215 | 3.2 | 9.7 | 0.00 | 1.09 | 0.00 | 84 | 1013.0 |
| 20260510004343 | 11 | 215 | 6.4 | 9.7 | 0.00 | 1.09 | 0.00 | 84 | 1012.9 |
| 20260510003845 | 11 | 215 | 1.6 | 8.0 | 0.00 | 1.09 | 0.00 | 84 | 1012.9 |
| 20260510003349 | 11 | 215 | 4.8 | 8.0 | 0.00 | 1.09 | 0.00 | 84 | 1012.9 |
| 20260510002849 | 11 | 213 | 4.8 | 6.4 | 0.00 | 1.09 | 0.00 | 84 | 1013.0 |
| 20260510002354 | 11 | 213 | 1.6 | 8.0 | 0.00 | 1.09 | 0.00 | 84 | 1013.0 |
| 20260510001900 | 11 | 213 | 0.0 | 8.0 | 0.00 | 1.09 | 0.00 | 84 | 1013.1 |
| 20260510001359 | 11 | 210 | 1.6 | 8.0 | 0.00 | 1.09 | 0.00 | 84 | 1013.1 |
| 20260510000902 | 11 | 210 | 1.6 | 8.0 | 0.00 | 1.09 | 0.00 | 84 | 1013.1 |
| 20260510000342 | 11 | 210 | 1.6 | 6.4 | 0.00 | 1.09 | 0.00 | 84 | 1013.1 |
| 20260509235846 | 11 | 209 | 0.0 | 6.4 | 0.00 | 1.09 | 0.00 | 84 | 1013.0 |
| 20260509235345 | 11 | 209 | 1.6 | 6.4 | 0.00 | 1.09 | 0.00 | 84 | 1013.0 |
| 20260509234846 | 11 | 209 | 3.2 | 8.0 | 0.00 | 1.09 | 0.00 | 84 | 1013.0 |
| 20260509234345 | 10 | 209 | 4.8 | 8.0 | 0.00 | 1.09 | 0.00 | 84 | 1013.0 |
| 20260509232346 | 10 | 209 | 0.0 | 6.4 | 0.03 | 1.09 | 0.00 | 83 | 1013.1 |
| 20260509231847 | 10 | 208 | 0.0 | 6.4 | 0.03 | 1.09 | 0.00 | 84 | 1013.2 |
| 20260509231346 | 10 | 208 | 3.2 | 6.4 | 0.03 | 1.09 | 0.00 | 84 | 1013.1 |
| 20260509230846 | 10 | 208 | 3.2 | 6.4 | 0.03 | 1.09 | 0.00 | 84 | 1013.1 |
| 20260509230349 | 10 | 209 | 1.6 | 8.0 | 0.03 | 1.09 | 0.00 | 84 | 1013.0 |
| 20260509225853 | 10 | 209 | 1.6 | 8.0 | 0.05 | 1.09 | 0.00 | 84 | 1013.0 |
| 20260509225355 | 10 | 209 | 3.2 | 4.8 | 0.05 | 1.09 | 1.09 | 84 | 1013.0 |
| 20260509224857 | 10 | 209 | 0.0 | 6.4 | 0.05 | 1.09 | 1.09 | 84 | 1012.9 |
| 20260509224358 | 10 | 209 | 0.0 | 8.0 | 0.05 | 1.09 | 1.09 | 84 | 1013.0 |
| 20260509223857 | 10 | 209 | 1.6 | 8.0 | 0.05 | 1.09 | 1.09 | 84 | 1013.0 |
| 20260509223357 | 10 | 257 | 1.6 | 6.4 | 0.05 | 1.09 | 1.09 | 84 | 1012.9 |
| 20260509222859 | 10 | 260 | 0.0 | 3.2 | 0.08 | 1.09 | 1.09 | 84 | 1012.9 |
| 20260509221845 | 10 | 260 | 1.6 | 3.2 | 0.05 | 1.09 | 1.09 | 84 | 1012.8 |
| 20260509221346 | 10 | 260 | 1.6 | 3.2 | 0.05 | 1.09 | 1.09 | 84 | 1012.8 |
| 20260509220849 | 10 | 260 | 0.0 | 3.2 | 0.05 | 1.09 | 1.09 | 84 | 1012.7 |
| 20260509215854 | 10 | 260 | 1.6 | 8.0 | 0.05 | 1.07 | 1.07 | 84 | 1012.5 |
| 20260509215357 | 11 | 219 | 4.8 | 6.4 | 0.03 | 1.04 | 1.04 | 84 | 1012.6 |
| 20260509214858 | 10 | 216 | 0.0 | 3.2 | 0.03 | 1.04 | 1.04 | 84 | 1012.3 |
| 20260509214356 | 10 | 216 | 0.0 | 4.8 | 0.05 | 1.04 | 1.04 | 84 | 1012.2 |
| 20260509213856 | 10 | 216 | 1.6 | 8.0 | 0.05 | 1.04 | 1.04 | 84 | 1012.2 |
| 20260509213356 | 11 | 216 | 1.6 | 8.0 | 0.05 | 1.04 | 1.04 | 84 | 1012.1 |
| 20260509212856 | 10 | 216 | 1.6 | 8.0 | 0.05 | 1.02 | 1.02 | 84 | 1012.1 |
| 20260509212359 | 10 | 216 | 1.6 | 8.0 | 0.08 | 1.02 | 1.02 | 84 | 1012.1 |
| 20260509211859 | 11 | 216 | 3.2 | 6.4 | 0.13 | 1.02 | 1.02 | 84 | 1012.0 |